星链-31315 (STARLINK-31315 )

导读 | 星芒AI

STARLINK-31315 是 SpaceX Starlink 卫星互联网项目中的一颗低轨卫星,属于第三代 Starlink 卫星(v1.5 或 v2 版本)。该卫星于 2023 年发射,旨在为全球用户提供高速、低延迟的宽带互联网服务。它运行在约 550 公里的轨道高度,配备先进通信设备和星间激光链路,提升网络效率与覆盖范围。作为 Starlink 网络的重要组成部分,STARLINK-31315 支持偏远地区互联网接入,推动全球数字连接。

基本信息
目录编号:
58884
目录名称:
STARLINK-31315
国际标识:
2024-020J
轨道中心:
EARTH
卫星名称:
星链-31315
卫星全名:
星链-31315 (STARLINK-31315 )
卫星状态:
在轨 (已飞行644 天)
发射日期:
2024-01-29 UTC
国别 :
美国 (US)
星等 :
--
轨道信息
数据来源 国际轨道数据
星历时间: 2025-11-02T15:40:07+0800
18小时前
查看轨道信息
半长轴: 6843.234km
偏心率: 0.0000848
轨道倾角: 53.157°
近地点辐角 236.858°
升交点赤经 168.094°
平近点角 123.235°
近地点: 464.518km
远地点: 465.68km
周期: 93.897分钟
每日圈数: 15.335951
详细信息
固有亮度:
5
最大亮度:
0.3
卫星平台:
Starlink v2.0 mini
覆盖范围:
全球
运营商:
太空探索技术公司
运营商所在国:
美国
制造商(研发单位):
太空探索技术公司
制造商所在国:
美国
使用方式:
暂无
卫星简介
星链(Starlink)计划是由太空探索技术公司(SpaceX)提出的一个巨型低轨卫星互联网星座项目,计划在2019年至2024年间在太空搭建由约1.2万颗卫星组成的“星链”网络,其中1584颗将部署在地球上空550千米处的近地轨道,并从2020年开始工作。该卫星仍在工作。
2D轨道图
3D轨道图
轨道高度分析图
轨道倾角分析图
轨道综合分析图
查看轨道综合分析图